Terminal Aerodrome Forecast
Issued by NWS Charleston, SC

Home | Current Version | Previous Version | Text Only | Print | Product List | Glossary On
Versions: 1 2 3 4 5 6 7 8 9 10 11 12 13 14 15
000
FTUS42 KCHS 202333
TAFSAV
TAF
KSAV 202333Z 2100/2124 09003KT P6SM BKN250
     FM210400 VRB03KT P6SM SCT025 BKN040
      TEMPO 2105/2108 BKN025=

USA.gov is the U.S. government's official web portal to all federal, state and local government web resources and services.